Wind_Speed
19 20 21 21 21 20 19 19 19 19 18 18 18 18 18 17 17 17 17 17 17 16 16 15 16 16 15 15 15 16 16 16 17 18 18 18 19 20 20 20 21 21 21
20 21 21 21 21 21 20 20 20 20 19 18 19 19 19 18 18 18 18 18 18 17 17 17 17 16 16 16 16 17 17 16 17 18 19 20 20 20 21 21 22 23 23
22 22 21 20 21 21 21 21 21 21 21 20 20 20 20 19 19 19 19 19 19 19 19 19 19 18 18 17 17 17 17 17 18 18 19 20 21 22 22 23 23 24 24
22 23 21 21 22 21 21 21 21 21 21 21 21 21 20 20 20 20 21 21 21 21 21 21 20 20 20 19 19 19 19 18 19 19 20 20 21 22 23 24 24 25 25
23 24 23 22 22 22 21 21 21 21 22 21 21 20 20 20 20 21 21 21 22 22 22 22 22 21 21 21 21 20 19 20 20 20 20 21 22 22 23 23 23 24 25
23 23 24 23 22 22 23 22 21 21 21 21 21 20 20 20 20 21 22 22 23 23 22 22 22 22 23 23 22 22 21 21 21 21 20 21 22 22 23 23 23 24 25
23 23 23 23 23 23 23 22 22 21 21 21 21 21 21 21 21 21 22 22 23 23 23 22 22 23 24 24 23 23 23 23 22 22 22 21 22 23 23 24 24 25 26
24 24 24 24 23 23 23 22 21 21 21 21 21 21 21 21 22 22 22 23 23 23 23 23 24 24 24 25 25 24 24 24 23 23 23 23 23 24 25 25 26 27 27
25 25 24 24 23 23 22 21 20 21 21 21 21 22 22 22 22 22 23 23 23 24 24 24 24 25 25 25 25 25 25 24 24 25 25 25 25 26 26 27 27 28 28
24 24 23 23 23 23 22 21 21 20 21 20 21 22 22 23 23 23 23 23 23 24 24 25 26 25 25 25 25 25 25 25 26 26 27 27 27 28 28 28 28 28 28
24 24 23 23 23 22 22 21 21 21 21 22 22 22 23 22 22 23 23 23 24 24 24 25 26 25 24 25 25 26 26 26 26 26 27 27 28 28 29 29 30 29 29
25 24 23 24 23 23 22 21 22 22 22 22 23 23 23 22 22 22 23 22 23 23 24 23 24 25 24 25 25 26 26 26 27 28 28 28 28 29 29 29 29 30 30
25 25 24 23 24 23 23 23 23 23 23 23 22 22 22 23 23 23 23 23 23 23 23 23 24 23 24 24 26 26 26 26 26 27 28 27 28 29 29 29 29 29 30
27 26 25 24 24 24 24 24 24 24 24 25 24 23 23 23 23 23 23 24 24 23 23 23 23 24 25 24 24 24 25 25 26 26 27 27 29 29 30 30 29 29 30
28 27 26 25 24 24 24 24 25 25 25 25 25 24 23 24 24 24 24 24 24 24 23 24 24 24 25 24 24 25 26 25 26 27 28 29 30 30 30 30 30 29 29
28 27 26 25 25 24 24 25 25 25 26 25 25 25 25 24 24 24 24 24 24 24 25 25 25 25 25 25 25 26 27 27 27 29 30 30 31 31 30 30 29 28 28
27 26 26 26 26 25 24 25 25 25 25 25 25 25 24 24 24 24 24 24 24 24 24 24 25 25 25 26 27 28 28 28 29 30 30 30 30 30 30 29 28 28 28
26 26 26 25 25 25 25 25 25 25 25 25 25 25 25 24 24 24 24 24 24 24 25 25 26 26 27 28 29 29 30 30 30 30 30 29 28 29 29 28 28 29 29
25 25 25 24 25 26 25 25 24 24 24 25 25 25 25 25 25 25 25 25 25 25 26 26 27 27 28 29 30 30 31 30 29 29 28 28 28 28 29 28 28 28 28
25 25 24 24 25 25 25 24 24 23 23 23 24 25 25 25 24 25 25 25 26 27 27 28 28 28 29 30 30 30 30 29 29 29 29 29 29 29 29 29 29 29 29
25 25 24 24 24 23 23 24 24 23 24 24 24 24 25 25 25 25 25 26 26 27 28 28 29 29 29 29 30 30 31 30 30 31 31 30 30 30 30 29 29 29 29
26 25 24 24 24 23 23 23 24 24 24 25 25 25 25 26 26 26 26 27 27 27 28 29 29 29 29 30 30 30 30 31 30 30 30 30 30 29 29 28 28 29 29
25 25 24 24 24 24 23 23 24 25 25 25 25 26 26 27 27 27 27 27 27 28 28 29 29 29 29 30 29 29 30 30 30 30 30 30 30 29 28 28 28 28 28
26 25 24 25 25 25 24 24 24 25 26 26 26 26 27 27 27 27 28 27 27 28 28 28 28 28 28 29 29 29 29 30 30 30 30 29 29 28 28 28 29 29 28
26 26 26 25 25 25 25 25 26 26 26 25 25 26 26 27 27 28 28 28 28 28 28 28 28 28 28 27 28 28 28 29 29 28 27 27 27 27 28 28 28 28 28
24 25 25 25 24 25 25 25 25 25 24 25 25 25 25 26 26 26 27 27 28 28 27 27 27 27 27 28 28 27 27 27 27 26 26 27 27 27 27 28 28 28 28
Wind_Direction
289 289 288 287 288 288 287 285 285 285 286 286 287 285 283 280 278 279 283 284 284 285 287 289 289 288 286 287 285 282 280 278 276 274 272 270 269 269 269 267 264 263 265
290 287 287 287 286 287 287 285 283 284 284 284 283 282 280 278 277 278 279 279 281 283 283 284 285 284 284 286 285 285 282 280 279 278 275 274 272 271 269 269 267 265 265
291 288 283 285 286 287 286 285 283 282 282 282 280 280 279 277 276 276 275 275 278 280 279 279 280 281 280 280 284 286 285 283 282 281 280 278 276 272 270 269 268 267 268
289 290 287 284 286 287 286 287 284 281 281 280 279 278 278 276 274 273 273 273 276 279 278 275 278 279 279 278 280 284 286 285 284 283 281 278 278 276 272 270 269 269 268
286 290 289 287 289 290 288 287 285 281 278 278 277 275 277 277 274 275 275 277 278 278 277 275 276 278 278 278 280 282 284 285 286 286 283 281 279 277 276 273 272 270 269
285 286 285 288 289 287 287 286 285 282 279 278 278 277 276 277 276 274 275 277 279 277 274 273 275 276 277 278 279 280 282 284 285 284 283 283 281 279 279 277 274 273 271
285 285 285 288 287 285 284 284 284 283 281 279 279 279 278 276 278 278 278 280 280 278 275 275 276 278 278 278 279 279 279 280 282 282 281 281 281 279 279 278 276 274 273
283 284 284 285 286 284 284 283 283 283 283 282 279 278 277 276 277 278 278 278 280 278 277 277 277 278 277 278 279 278 277 278 279 280 280 280 280 280 279 278 277 275 274
283 282 283 282 283 282 282 284 282 282 283 282 281 281 278 277 278 278 277 276 278 279 278 278 279 278 278 279 278 277 276 276 278 279 279 279 279 280 280 280 279 277 275
284 285 284 283 282 281 283 283 281 282 283 281 281 281 278 277 278 279 279 281 282 281 279 278 279 278 277 277 276 276 277 277 277 278 277 276 277 279 281 282 281 279 277
283 283 283 281 281 281 281 281 281 282 281 279 279 279 278 279 280 280 279 281 282 282 281 280 278 277 278 278 276 276 277 276 276 278 277 277 278 280 282 281 280 279 278
282 283 282 281 281 281 280 279 278 279 279 279 279 278 280 280 281 281 280 282 284 284 286 284 281 278 278 280 279 278 276 277 277 277 277 278 280 281 282 281 281 281 279
279 280 281 281 280 281 280 278 278 279 278 278 279 278 278 280 281 280 280 282 283 283 284 284 281 281 283 283 280 279 278 280 280 279 277 278 281 282 281 280 280 280 278
278 279 280 279 279 279 279 279 279 280 279 279 279 279 280 282 282 281 280 281 282 282 283 282 283 284 286 285 284 282 283 284 282 281 281 281 282 282 282 281 280 279 279
277 277 278 276 277 277 278 279 278 278 278 279 280 279 278 280 281 280 279 281 282 282 280 280 283 286 285 286 287 286 285 285 284 284 284 283 283 283 283 282 282 280 280
275 276 276 275 275 277 277 277 278 276 276 279 279 279 278 279 281 281 280 280 281 281 281 281 282 283 283 284 286 287 286 284 285 286 286 285 284 283 283 282 282 280 280
272 273 272 272 273 277 279 277 277 276 277 278 279 279 279 279 281 281 280 280 280 281 282 282 282 282 283 284 286 287 287 286 287 286 286 286 285 284 284 284 283 282 280
269 271 270 270 273 276 278 278 278 276 276 277 278 279 279 280 280 281 280 280 279 279 282 283 283 283 284 284 285 286 287 289 289 287 286 285 285 285 285 283 282 280 279
271 273 271 271 273 275 277 278 278 278 276 276 277 278 281 282 282 283 283 282 280 280 282 284 284 284 283 283 284 285 288 289 288 287 287 286 287 287 286 285 283 282 280
270 270 270 273 273 274 276 276 276 277 277 278 278 279 282 282 282 284 286 285 282 281 282 283 284 284 283 284 285 286 287 288 286 285 286 286 286 287 287 285 284 283 282
268 271 273 274 275 276 275 275 276 277 278 279 280 279 281 281 281 283 284 285 285 284 283 284 284 285 285 286 285 286 285 286 286 285 286 286 287 287 286 285 285 283 283
265 268 272 275 276 276 275 275 276 277 279 279 280 280 281 282 282 282 283 284 284 284 285 285 285 286 288 288 288 287 286 285 285 284 285 285 285 285 285 285 285 286 285
264 267 270 272 273 274 274 276 275 276 278 279 279 280 282 282 283 283 284 284 285 286 286 287 287 288 289 288 287 286 285 284 283 283 284 284 283 283 282 282 284 286 286
266 266 268 270 271 273 274 276 276 277 279 280 280 280 282 283 283 285 284 285 285 286 287 287 288 288 290 289 288 286 285 284 283 283 284 285 285 284 283 283 284 286 287
267 266 268 270 270 271 272 275 276 278 280 280 280 282 283 285 285 285 284 283 286 288 288 288 288 289 290 289 287 286 287 286 285 285 284 285 285 285 284 284 285 286 287
268 266 266 267 269 270 272 274 275 278 280 281 282 283 286 289 288 286 284 284 286 287 288 288 289 289 288 287 287 286 286 286 287 286 287 286 285 285 285 285 285 286 287
Height
5854 5852 5850 5849 5849 5848 5848 5847 5847 5846 5845 5845 5844 5844 5844 5844 5844 5844 5844 5843 5843 5843 5843 5842 5842 5841 5841 5841 5840 5840 5840 5840 5840 5840 5840 5840 5841 5841 5841 5842 5842 5843 5844
5849 5848 5847 5845 5845 5844 5844 5843 5842 5842 5841 5840 5840 5840 5840 5840 5840 5840 5840 5840 5840 5839 5839 5839 5838 5838 5838 5837 5837 5836 5836 5836 5836 5836 5836 5836 5837 5837 5837 5837 5837 5838 5839
5844 5843 5841 5840 5839 5839 5839 5838 5838 5837 5836 5836 5836 5835 5836 5835 5836 5836 5836 5836 5835 5835 5835 5835 5835 5834 5834 5833 5833 5832 5832 5832 5831 5831 5831 5831 5832 5832 5832 5832 5832 5833 5833
5840 5838 5837 5836 5834 5833 5833 5833 5833 5832 5832 5831 5831 5831 5831 5831 5831 5831 5831 5831 5831 5831 5831 5831 5831 5830 5830 5829 5829 5828 5828 5827 5827 5827 5826 5826 5826 5826 5826 5827 5826 5827 5827
5836 5834 5832 5830 5830 5829 5828 5828 5828 5827 5827 5827 5826 5826 5826 5826 5826 5826 5826 5826 5827 5826 5826 5826 5826 5826 5825 5825 5824 5824 5823 5822 5822 5822 5821 5821 5821 5820 5820 5821 5821 5821 5821
5831 5829 5827 5825 5825 5825 5824 5824 5823 5823 5822 5822 5822 5822 5822 5821 5821 5821 5821 5821 5821 5821 5821 5821 5821 5821 5820 5820 5819 5819 5818 5817 5817 5816 5816 5816 5816 5815 5815 5814 5815 5815 5815
5826 5824 5823 5822 5821 5820 5819 5819 5818 5818 5817 5817 5817 5817 5817 5816 5816 5816 5816 5816 5816 5816 5816 5816 5816 5816 5815 5814 5814 5813 5813 5812 5811 5811 5810 5810 5810 5809 5809 5808 5808 5808 5808
5820 5819 5818 5816 5815 5814 5814 5814 5813 5813 5812 5812 5812 5812 5811 5811 5811 5811 5811 5811 5810 5810 5810 5810 5810 5809 5809 5808 5807 5807 5806 5806 5805 5805 5804 5804 5804 5803 5803 5802 5801 5801 5801
5815 5814 5812 5811 5810 5810 5809 5808 5808 5808 5807 5806 5806 5806 5806 5806 5805 5805 5804 5805 5805 5804 5804 5803 5803 5802 5802 5801 5800 5800 5800 5799 5799 5799 5798 5798 5797 5797 5796 5795 5795 5794 5794
5809 5808 5806 5805 5804 5804 5804 5803 5802 5802 5801 5801 5801 5801 5800 5800 5800 5799 5799 5799 5799 5798 5797 5797 5795 5794 5794 5794 5793 5793 5793 5793 5792 5792 5791 5791 5790 5790 5789 5788 5787 5787 5786
5804 5803 5801 5800 5799 5799 5798 5798 5797 5797 5796 5796 5796 5795 5795 5794 5794 5793 5793 5793 5793 5792 5791 5790 5789 5788 5787 5787 5787 5787 5786 5786 5785 5785 5784 5783 5783 5782 5781 5780 5780 5779 5779
5798 5797 5796 5795 5794 5793 5793 5793 5792 5792 5791 5790 5790 5789 5789 5788 5788 5787 5787 5787 5786 5785 5784 5783 5782 5781 5781 5780 5780 5780 5779 5779 5778 5778 5777 5776 5775 5775 5774 5773 5772 5771 5770
5792 5791 5790 5790 5789 5788 5788 5787 5787 5786 5785 5785 5784 5784 5783 5783 5782 5782 5781 5781 5780 5779 5778 5777 5776 5775 5775 5774 5774 5773 5772 5771 5771 5770 5769 5769 5768 5767 5766 5765 5764 5763 5762
5786 5785 5784 5784 5783 5782 5782 5781 5781 5780 5780 5779 5779 5778 5778 5777 5776 5775 5775 5774 5774 5773 5772 5771 5770 5770 5769 5768 5767 5766 5765 5764 5764 5763 5762 5761 5760 5759 5758 5757 5755 5754 5753
5779 5779 5778 5778 5777 5776 5776 5775 5775 5774 5774 5773 5773 5773 5772 5771 5770 5770 5769 5768 5767 5766 5765 5765 5764 5763 5762 5761 5761 5760 5758 5758 5757 5756 5754 5753 5752 5750 5749 5748 5747 5746 5745
5773 5772 5771 5771 5770 5769 5769 5769 5768 5768 5767 5767 5766 5766 5765 5765 5764 5763 5762 5761 5760 5759 5758 5758 5757 5756 5756 5755 5754 5753 5752 5751 5749 5748 5746 5745 5743 5742 5741 5740 5739 5738 5737
5765 5765 5764 5764 5763 5762 5762 5761 5761 5761 5760 5760 5760 5759 5759 5758 5757 5756 5756 5755 5753 5753 5752 5751 5750 5750 5749 5748 5747 5746 5744 5743 5742 5740 5738 5737 5735 5734 5733 5732 5731 5730 5729
5757 5757 5757 5757 5756 5756 5755 5754 5754 5753 5753 5753 5753 5752 5752 5751 5750 5750 5749 5748 5747 5746 5745 5744 5743 5742 5741 5741 5740 5738 5736 5735 5733 5731 5730 5729 5727 5726 5725 5724 5723 5721 5720
5750 5750 5749 5749 5749 5748 5748 5747 5747 5747 5746 5746 5745 5745 5745 5744 5743 5742 5742 5741 5740 5739 5738 5737 5735 5734 5734 5733 5732 5730 5729 5727 5725 5724 5722 5721 5720 5719 5717 5716 5715 5714 5712
5742 5742 5742 5742 5742 5741 5741 5740 5740 5740 5739 5739 5739 5738 5738 5737 5736 5735 5734 5733 5732 5731 5730 5729 5728 5727 5726 5724 5723 5722 5720 5719 5718 5716 5715 5713 5712 5711 5709 5708 5706 5705 5704
5735 5735 5735 5735 5734 5734 5734 5734 5733 5733 5733 5732 5732 5731 5731 5730 5729 5728 5727 5726 5725 5723 5722 5721 5720 5718 5717 5716 5714 5713 5712 5711 5709 5708 5707 5706 5705 5703 5701 5699 5698 5697 5696
5728 5728 5728 5728 5728 5727 5727 5727 5727 5727 5726 5725 5725 5725 5724 5723 5722 5721 5720 5718 5717 5715 5714 5713 5711 5710 5708 5707 5706 5705 5703 5702 5701 5700 5699 5697 5696 5695 5693 5691 5690 5688 5687
5720 5721 5721 5721 5721 5721 5721 5720 5720 5720 5719 5719 5718 5717 5716 5715 5714 5713 5711 5710 5709 5707 5706 5704 5703 5701 5700 5698 5697 5695 5694 5692 5691 5691 5690 5689 5687 5686 5685 5683 5682 5680 5679
5713 5714 5714 5714 5715 5715 5714 5714 5713 5713 5712 5711 5710 5709 5709 5707 5706 5704 5703 5702 5701 5699 5698 5696 5695 5693 5691 5689 5688 5686 5685 5684 5683 5682 5681 5680 5678 5677 5675 5674 5673 5672 5670
5707 5707 5707 5708 5708 5708 5707 5707 5706 5706 5704 5703 5702 5702 5700 5699 5698 5696 5695 5694 5693 5691 5690 5688 5686 5685 5683 5681 5680 5678 5677 5675 5674 5673 5672 5672 5670 5669 5667 5666 5665 5663 5662
5700 5700 5701 5701 5701 5701 5700 5700 5699 5698 5697 5696 5695 5694 5693 5691 5690 5688 5687 5686 5685 5683 5681 5680 5678 5676 5675 5673 5671 5670 5668 5667 5665 5664 5664 5663 5662 5660 5659 5657 5656 5655 5654